Time,TemperatureF,DewpointF,PressureIn,WindDirection,WindDirectionDegrees,WindSpeedMPH,WindSpeedGustMPH,Humidity,HourlyPrecipIn,Conditions,Clouds,dailyrainin,SolarRadiationWatts/m^2,SoftwareType,DateUTC
2013-02-20 00:09:00,42.8,40.0,29.60,West,269,1.0,4.0,90,0.00,,,0.00,0,weatherlink.com 1.10,2013-02-20 05:09:00,
2013-02-20 00:24:00,42.6,40.0,29.60,NW,309,3.0,4.0,89,0.00,,,0.00,0,weatherlink.com 1.10,2013-02-20 05:24:00,
2013-02-20 00:39:00,42.2,39.0,29.61,WSW,246,0.0,6.0,88,0.00,,,0.00,0,weatherlink.com 1.10,2013-02-20 05:39:00,
2013-02-20 00:54:00,41.4,38.0,29.62,SSW,207,2.0,4.0,88,0.00,,,0.00,0,weatherlink.com 1.10,2013-02-20 05:54:00,
2013-02-20 01:09:00,41.3,38.0,29.62,SSW,207,0.0,4.0,88,0.00,,,0.00,0,weatherlink.com 1.10,2013-02-20 06:09:00,
2013-02-20 01:24:00,41.0,38.0,29.62,West,262,1.0,5.0,88,0.00,,,0.00,0,weatherlink.com 1.10,2013-02-20 06:24:00,
2013-02-20 01:39:00,40.7,38.0,29.61,West,262,1.0,6.0,88,0.00,,,0.00,0,weatherlink.com 1.10,2013-02-20 06:39:00,
2013-02-20 01:54:00,40.3,37.0,29.62,NW,306,1.0,8.0,87,0.00,,,0.00,0,weatherlink.com 1.10,2013-02-20 06:54:00,
2013-02-20 02:09:00,39.7,36.0,29.62,WSW,248,0.0,6.0,85,0.00,,,0.00,0,weatherlink.com 1.10,2013-02-20 07:09:00,
2013-02-20 02:24:00,39.1,35.0,29.62,WSW,256,8.0,9.0,84,0.00,,,0.00,0,weatherlink.com 1.10,2013-02-20 07:24:00,
2013-02-20 02:39:00,38.6,34.0,29.61,WSW,252,3.0,9.0,82,0.00,,,0.00,0,weatherlink.com 1.10,2013-02-20 07:39:00,
2013-02-20 02:54:00,38.3,33.0,29.61,WNW,302,4.0,9.0,81,0.00,,,0.00,0,weatherlink.com 1.10,2013-02-20 07:54:00,
2013-02-20 03:10:00,38.1,32.0,29.62,NW,306,3.0,9.0,80,0.00,,,0.00,0,weatherlink.com 1.10,2013-02-20 08:10:00,
2013-02-20 03:24:00,38.2,34.0,29.62,NW,317,0.0,8.0,84,0.00,,,0.00,0,weatherlink.com 1.10,2013-02-20 08:24:00,
2013-02-20 03:39:00,38.3,32.0,29.63,North,355,5.0,8.0,78,0.00,,,0.00,0,weatherlink.com 1.10,2013-02-20 08:39:00,
2013-02-20 03:54:00,37.9,31.0,29.63,North,355,6.0,8.0,77,0.00,,,0.00,0,weatherlink.com 1.10,2013-02-20 08:54:00,
2013-02-20 04:09:00,37.7,31.0,29.64,NW,323,0.0,8.0,76,0.00,,,0.00,0,weatherlink.com 1.10,2013-02-20 09:09:00,
2013-02-20 04:24:00,37.5,30.0,29.64,NNW,342,2.0,9.0,75,0.00,,,0.00,0,weatherlink.com 1.10,2013-02-20 09:24:00,
2013-02-20 04:39:00,37.4,30.0,29.64,NW,321,0.0,5.0,76,0.00,,,0.00,0,weatherlink.com 1.10,2013-02-20 09:39:00,
2013-02-20 04:55:00,37.3,30.0,29.65,NW,324,1.0,8.0,76,0.00,,,0.00,0,weatherlink.com 1.10,2013-02-20 09:55:00,
2013-02-20 05:09:00,37.2,30.0,29.65,NNW,337,5.0,8.0,75,0.00,,,0.00,0,weatherlink.com 1.10,2013-02-20 10:09:00,
2013-02-20 05:25:00,37.0,30.0,29.65,NNW,331,3.0,6.0,75,0.00,,,0.00,0,weatherlink.com 1.10,2013-02-20 10:25:00,
2013-02-20 05:40:00,36.9,30.0,29.66,NW,321,2.0,9.0,75,0.00,,,0.00,0,weatherlink.com 1.10,2013-02-20 10:40:00,
2013-02-20 05:55:00,36.7,29.0,29.66,North,355,3.0,6.0,75,0.00,,,0.00,0,weatherlink.com 1.10,2013-02-20 10:55:00,
2013-02-20 06:10:00,36.5,29.0,29.67,WNW,300,8.0,15.0,75,0.00,,,0.00,0,weatherlink.com 1.10,2013-02-20 11:10:00,
2013-02-20 06:26:00,36.1,29.0,29.68,WNW,296,0.0,10.0,74,0.00,,,0.00,0,weatherlink.com 1.10,2013-02-20 11:26:00,
2013-02-20 06:41:00,35.8,27.0,29.69,NW,307,8.0,13.0,71,0.00,,,0.00,0,weatherlink.com 1.10,2013-02-20 11:41:00,
2013-02-20 06:56:00,35.4,26.0,29.69,NW,319,2.0,10.0,69,0.00,,,0.00,5,weatherlink.com 1.10,2013-02-20 11:56:00,
2013-02-20 07:11:00,35.2,26.0,29.70,NW,317,5.0,13.0,69,0.00,,,0.00,7,weatherlink.com 1.10,2013-02-20 12:11:00,
2013-02-20 07:26:00,34.8,23.0,29.71,NNW,333,1.0,13.0,63,0.00,,,0.00,12,weatherlink.com 1.10,2013-02-20 12:26:00,
2013-02-20 07:41:00,34.6,21.0,29.72,NNW,328,3.0,15.0,59,0.00,,,0.00,33,weatherlink.com 1.10,2013-02-20 12:41:00,
2013-02-20 07:57:00,34.3,20.0,29.73,North,360,7.0,18.0,57,0.00,,,0.00,33,weatherlink.com 1.10,2013-02-20 12:57:00,
2013-02-20 08:12:00,34.6,21.0,29.73,NNE,16,3.0,11.0,57,0.00,,,0.00,74,weatherlink.com 1.10,2013-02-20 13:12:00,
2013-02-20 08:27:00,34.6,19.0,29.74,NW,317,4.0,15.0,53,0.00,,,0.00,149,weatherlink.com 1.10,2013-02-20 13:27:00,
2013-02-20 08:42:00,34.6,18.0,29.74,NW,304,5.0,17.0,51,0.00,,,0.00,130,weatherlink.com 1.10,2013-02-20 13:42:00,
2013-02-20 08:57:00,34.9,19.0,29.73,NNE,15,6.0,16.0,52,0.00,,,0.00,195,weatherlink.com 1.10,2013-02-20 13:57:00,
2013-02-20 09:12:00,35.6,19.0,29.73,NW,324,1.0,8.0,52,0.00,,,0.00,381,weatherlink.com 1.10,2013-02-20 14:12:00,
2013-02-20 09:27:00,36.1,18.0,29.73,NW,311,7.0,15.0,49,0.00,,,0.00,397,weatherlink.com 1.10,2013-02-20 14:27:00,
2013-02-20 09:43:00,35.9,17.0,29.73,NW,304,4.0,15.0,47,0.00,,,0.00,279,weatherlink.com 1.10,2013-02-20 14:43:00,
2013-02-20 09:58:00,35.8,16.0,29.74,NNE,26,5.0,19.0,44,0.00,,,0.00,483,weatherlink.com 1.10,2013-02-20 14:58:00,
2013-02-20 10:13:00,36.4,16.0,29.74,NNE,12,8.0,14.0,43,0.00,,,0.00,656,weatherlink.com 1.10,2013-02-20 15:13:00,
2013-02-20 10:28:00,37.2,15.0,29.73,NNE,26,2.0,16.0,41,0.00,,,0.00,675,weatherlink.com 1.10,2013-02-20 15:28:00,
2013-02-20 10:43:00,37.2,17.0,29.73,West,274,2.0,10.0,44,0.00,,,0.00,710,weatherlink.com 1.10,2013-02-20 15:43:00,
2013-02-20 10:59:00,36.8,16.0,29.73,NW,313,4.0,16.0,42,0.00,,,0.00,668,weatherlink.com 1.10,2013-02-20 15:59:00,
2013-02-20 11:13:00,37.1,15.0,29.73,NNE,14,11.0,12.0,41,0.00,,,0.00,745,weatherlink.com 1.10,2013-02-20 16:13:00,
2013-02-20 11:29:00,36.9,15.0,29.72,WNW,303,1.0,12.0,40,0.00,,,0.00,851,weatherlink.com 1.10,2013-02-20 16:29:00,
2013-02-20 11:45:00,37.2,15.0,29.72,NW,315,3.0,17.0,41,0.00,,,0.00,302,weatherlink.com 1.10,2013-02-20 16:45:00,
2013-02-20 11:59:00,36.2,15.0,29.72,NNW,327,13.0,15.0,42,0.00,,,0.00,172,weatherlink.com 1.10,2013-02-20 16:59:00,
2013-02-20 12:15:00,35.5,14.0,29.72,North,5,2.0,14.0,42,0.00,,,0.00,227,weatherlink.com 1.10,2013-02-20 17:15:00,
2013-02-20 12:29:00,35.7,15.0,29.71,NNE,26,6.0,13.0,43,0.00,,,0.00,738,weatherlink.com 1.10,2013-02-20 17:29:00,
2013-02-20 12:45:00,35.8,14.0,29.71,North,9,7.0,15.0,41,0.00,,,0.00,844,weatherlink.com 1.10,2013-02-20 17:45:00,
2013-02-20 13:00:00,35.9,15.0,29.70,NNW,331,2.0,11.0,43,0.00,,,0.00,262,weatherlink.com 1.10,2013-02-20 18:00:00,
2013-02-20 13:15:00,35.9,15.0,29.71,West,276,6.0,18.0,43,0.00,,,0.00,431,weatherlink.com 1.10,2013-02-20 18:15:00,
2013-02-20 13:34:00,36.1,15.0,29.71,WNW,287,1.0,19.0,43,0.00,,,0.00,232,weatherlink.com 1.10,2013-02-20 18:34:00,
2013-02-20 13:45:00,35.5,14.0,29.71,NNW,329,1.0,14.0,42,0.00,,,0.00,206,weatherlink.com 1.10,2013-02-20 18:45:00,
2013-02-20 14:00:00,35.2,16.0,29.71,NNE,24,4.0,14.0,45,0.00,,,0.00,213,weatherlink.com 1.10,2013-02-20 19:00:00,
2013-02-20 14:15:00,34.8,14.0,29.71,NW,326,4.0,14.0,43,0.00,,,0.00,239,weatherlink.com 1.10,2013-02-20 19:15:00,
2013-02-20 14:30:00,34.6,15.0,29.72,WNW,303,4.0,19.0,44,0.00,,,0.00,160,weatherlink.com 1.10,2013-02-20 19:30:00,
2013-02-20 14:46:00,34.5,16.0,29.72,WNW,283,4.0,16.0,46,0.00,,,0.00,120,weatherlink.com 1.10,2013-02-20 19:46:00,
2013-02-20 15:01:00,34.5,16.0,29.73,NW,304,16.0,16.0,47,0.00,,,0.00,167,weatherlink.com 1.10,2013-02-20 20:01:00,
2013-02-20 15:46:00,34.2,14.0,29.73,NW,325,0.0,16.0,44,0.00,,,0.00,83,weatherlink.com 1.10,2013-02-20 20:46:00,
2013-02-20 16:01:00,34.3,14.0,29.74,NW,326,2.0,11.0,44,0.00,,,0.00,69,weatherlink.com 1.10,2013-02-20 21:01:00,
2013-02-20 16:16:00,34.3,14.0,29.74,West,280,7.0,20.0,43,0.00,,,0.00,100,weatherlink.com 1.10,2013-02-20 21:16:00,
2013-02-20 16:31:00,34.0,13.0,29.74,NW,313,10.0,13.0,43,0.00,,,0.00,49,weatherlink.com 1.10,2013-02-20 21:31:00,
2013-02-20 16:47:00,33.6,14.0,29.75,WNW,284,7.0,17.0,44,0.00,,,0.00,54,weatherlink.com 1.10,2013-02-20 21:47:00,
2013-02-20 17:02:00,33.3,13.0,29.75,WNW,287,0.0,15.0,43,0.00,,,0.00,21,weatherlink.com 1.10,2013-02-20 22:02:00,
2013-02-20 17:17:00,32.9,14.0,29.76,NW,316,0.0,7.0,46,0.00,,,0.00,9,weatherlink.com 1.10,2013-02-20 22:17:00,
2013-02-20 17:32:00,32.5,14.0,29.76,NNW,337,4.0,13.0,47,0.00,,,0.00,0,weatherlink.com 1.10,2013-02-20 22:32:00,
2013-02-20 17:47:00,32.4,13.0,29.77,NNE,18,2.0,13.0,45,0.00,,,0.00,0,weatherlink.com 1.10,2013-02-20 22:47:00,
2013-02-20 18:03:00,32.1,12.0,29.78,NNW,331,10.0,16.0,43,0.00,,,0.00,0,weatherlink.com 1.10,2013-02-20 23:03:00,
2013-02-20 18:18:00,31.8,12.0,29.79,NW,304,5.0,14.0,44,0.00,,,0.00,0,weatherlink.com 1.10,2013-02-20 23:18:00,
2013-02-20 18:33:00,31.5,12.0,29.79,WNW,300,7.0,17.0,44,0.00,,,0.00,0,weatherlink.com 1.10,2013-02-20 23:33:00,
2013-02-20 18:48:00,31.4,13.0,29.80,NW,317,2.0,10.0,46,0.00,,,0.00,0,weatherlink.com 1.10,2013-02-20 23:48:00,
2013-02-20 19:03:00,31.2,12.0,29.80,NW,321,7.0,14.0,45,0.00,,,0.00,0,weatherlink.com 1.10,2013-02-21 00:03:00,
2013-02-20 19:18:00,30.9,11.0,29.80,NW,319,6.0,24.0,43,0.00,,,0.00,0,weatherlink.com 1.10,2013-02-21 00:18:00,
2013-02-20 19:33:00,30.5,11.0,29.81,WNW,292,2.0,7.0,45,0.00,,,0.00,0,weatherlink.com 1.10,2013-02-21 00:33:00,
2013-02-20 19:49:00,30.2,11.0,29.81,NW,311,0.0,12.0,44,0.00,,,0.00,0,weatherlink.com 1.10,2013-02-21 00:49:00,
2013-02-20 20:05:00,30.0,11.0,29.81,WNW,291,11.0,12.0,45,0.00,,,0.00,0,weatherlink.com 1.10,2013-02-21 01:05:00,
2013-02-20 20:19:00,29.8,11.0,29.82,WNW,301,3.0,15.0,46,0.00,,,0.00,0,weatherlink.com 1.10,2013-02-21 01:19:00,
2013-02-20 20:35:00,29.6,11.0,29.82,NW,304,4.0,11.0,45,0.00,,,0.00,0,weatherlink.com 1.10,2013-02-21 01:35:00,
2013-02-20 20:49:00,29.3,11.0,29.82,WNW,294,8.0,10.0,46,0.00,,,0.00,0,weatherlink.com 1.10,2013-02-21 01:49:00,
2013-02-20 21:05:00,29.2,11.0,29.83,WNW,288,6.0,17.0,46,0.00,,,0.00,0,weatherlink.com 1.10,2013-02-21 02:05:00,
2013-02-20 21:20:00,28.9,10.0,29.83,WNW,301,1.0,9.0,46,0.00,,,0.00,0,weatherlink.com 1.10,2013-02-21 02:20:00,
2013-02-20 21:35:00,28.7,11.0,29.84,NNW,331,4.0,11.0,47,0.00,,,0.00,0,weatherlink.com 1.10,2013-02-21 02:35:00,
2013-02-20 21:50:00,28.6,11.0,29.84,NW,321,0.0,11.0,48,0.00,,,0.00,0,weatherlink.com 1.10,2013-02-21 02:50:00,
2013-02-20 22:05:00,28.3,11.0,29.84,NW,324,2.0,12.0,49,0.00,,,0.00,0,weatherlink.com 1.10,2013-02-21 03:05:00,
2013-02-20 22:20:00,28.0,11.0,29.84,WSW,239,0.0,7.0,50,0.00,,,0.00,0,weatherlink.com 1.10,2013-02-21 03:20:00,
2013-02-20 22:35:00,27.7,12.0,29.85,NW,311,0.0,9.0,52,0.00,,,0.00,0,weatherlink.com 1.10,2013-02-21 03:35:00,
2013-02-20 22:51:00,27.6,12.0,29.85,NW,304,0.0,8.0,52,0.00,,,0.00,0,weatherlink.com 1.10,2013-02-21 03:51:00,
2013-02-20 23:06:00,27.4,12.0,29.85,NW,316,0.0,8.0,53,0.00,,,0.00,0,weatherlink.com 1.10,2013-02-21 04:06:00,
2013-02-20 23:21:00,27.3,13.0,29.86,NW,320,3.0,8.0,54,0.00,,,0.00,0,weatherlink.com 1.10,2013-02-21 04:21:00,
2013-02-20 23:36:00,27.1,12.0,29.85,WNW,298,0.0,5.0,54,0.00,,,0.00,0,weatherlink.com 1.10,2013-02-21 04:36:00,
2013-02-20 23:51:00,26.9,13.0,29.87,NW,309,1.0,5.0,55,0.00,,,0.00,0,weatherlink.com 1.10,2013-02-21 04:51:00,